Location: Équennes
(49.7375°N, 1.9622°E)
Time: 22:07:21
(UTC+00:00)

Cosmos 1023 Rocket - Pass Details

Date: 28 January 2023
Orbit: 735 x 771 km, 74.1° (Epoch: 28 March)

Event Time Altitude Azimuth Distance (km) Brightness Sun altitude
Rises 18:14:13 0° 191° (S) 3,199 8.0 -15.2°
Reaches altitude 10° 18:16:36 10° 188° (S) 2,273 7.2 -15.6°
Maximum altitude 18:21:40 62° 109° (ESE) 840 4.4 -16.4°
Enters shadow 18:25:56 15° 31° (NNE) 1,968 6.3 -17.0°
